Regional Weather Roundup
Issued by NWS Grand Forks, ND

Home | Current Version | Previous Version | Graphics & Text | Print | Product List | Glossary On
Versions: 1 2 3 4 5 6 7 8 9 10 11 12 13 14 15 16 17 18 19 20 21 22 23 24 25 26 27 28 29 30 31 32 33 34 35 36 37 38 39 40 41 42 43 44 45 46 47 48 49 50
000
ASUS43 KFGF 030810
RWRFGF
PRAIRIE TO PINES  WEATHER ROUNDUP
NATIONAL WEATHER SERVICE EASTERN NORTH DAKOTA/GRAND FORKS ND
300 AM CDT MON AUG 03 2015

 **SATELLITE DATA USED TO AUGMENT SKY COVER AT AUTOMATED STATIONS**
 *****  WEATHER ACROSS EASTERN NORTH DAKOTA  *****

CITY           SKY/WX    TMP DP  RH WIND       PRES   REMARKS
GRAND FORKS    CLEAR     51  47  86 W7        29.88R
GRAND FRKS AFB CLEAR     52  48  86 W7        29.89R
DEVILS LAKE    CLEAR     55  46  71 NW8       29.92S
FARGO          CLEAR     54  48  80 W6        29.89S
WAHPETON ARPT  SUNNY     50  46  87 W6        29.91S
$$

 ***** WEATHER ACROSS CENTRAL AND WESTERN NORTH DAKOTA  *****

CITY           SKY/WX    TMP DP  RH WIND       PRES   REMARKS
BISMARCK       CLEAR     58  53  84 W6        29.99S
MINOT          CLEAR     55  49  80 SW7       29.98S
JAMESTOWN      CLEAR     55  50  83 NW6       29.95S
MINOT AFB      CLEAR     53  52  97 W9        29.98R
GARRISON         N/A     53  50  89 N6        30.00S
WILLISTON      CLEAR     56  49  77 NE3       30.03F
DICKINSON      CLEAR     52  47  83 CALM      30.02F
HETTINGER      CLEAR     51  46  83 N3        30.05S
$$

 *****  OTHER AIRPORT OBSERVATIONS IN OUR AREA  *****

CITY           SKY/WX    TMP DP  RH WIND       PRES   REMARKS
WALHALLA       FAIR      50  50 100 MISG      29.89S
GRAFTON AIRPOR FAIR      55  52  88 W7        29.89R
VALLEY CITY AR FAIR      55  54  94 W8        29.94S
CANDO          NOT AVBL
CAVALIER APRT  FAIR      52  48  87 W3        29.88S
GWINNER        FAIR      59  52  77 NW7       29.94S
SHEYENNE NWR     N/A     54  51  90 W5        29.95
ROLLA          FAIR      54  50  87 NW8       29.95S
 ***** THE ABOVE OBSERVATIONS ARE NON NWS ARE NOT QUALITY
       CONTROLLED AND MAY MIS-REPORT RAIN FOR SNOW...
$$

  *****  WEATHER ACROSS NORTHERN MINNESOTA  *****

CITY           SKY/WX    TMP DP  RH WIND       PRES   REMARKS
FLAG ISLAND    MOCLDY    59  54  82 NW17G23   29.79R
WARROAD        PTCLDY    54  48  82 W6        29.83R
ROSEAU         PTCLDY    55  50  82 W9        29.84R
HALLOCK        CLEAR     54  48  82 NW5       29.86F
THF RVR FALLS  CLEAR     54  48  82 W6        29.87F
BAUDETTE       MOCLDY    61  49  64 NW17G24   29.79S
WASKISH        PTCLDY    61  50  67 W13G20    29.81S
CROOKSTON      CLEAR     52  48  87 NW3       29.88S
STEPHEN NDAWN    N/A     52  48  87 W5          N/A
GREENBUSH NDAW   N/A     57  48  72 NW7         N/A
$$
  *****  WEATHER ACROSS CENTRAL AND WEST MINNESOTA  *****

CITY           SKY/WX    TMP DP  RH WIND       PRES   REMARKS
FOSSTON        CLEAR     45  39  81 CALM      29.88S
BEMIDJI        CLEAR     54  46  74 W8        29.85S
PARK RAPIDS    CLEAR     51  47  86 CALM      29.88R
ELBOW LAKE     FAIR      55  49  81 W5        29.91S
WADENA         CLEAR     54  48  82 W6        29.89R
DETROIT LAKES  CLEAR     55  50  82 NW5       29.90S
MOORHEAD       CLEAR     54  48  82 NW6       29.90S
FERGUS FALLS   CLEAR     54  48  82 CALM      29.91R
MORRIS MN      CLEAR     54  52  94 W5        29.91S
STAPLES        CLEAR     52  48  87 W6        29.88S
$$
  *****  WEATHER ELSEWHERE ACROSS MINNESOTA  *****

CITY           SKY/WX    TMP DP  RH WIND       PRES   REMARKS
DULUTH         CLEAR     57  46  66 W10       29.79S
INTRNTL FALLS  CLOUDY    57  49  74 W6        29.76S
ELY            CLEAR     52  46  82 CALM      29.75S
CLOQUET        CLEAR     55  45  67 W8        29.81R
WHEATON        CLEAR     55  52  88 W7        29.93F
BRAINERD       CLEAR     50  48  93 S5        29.86S
HIBBING        CLEAR     54  44  69 W5        29.79S
ALEXANDRIA     CLEAR     60  51  72 W9        29.92R
SAINT CLOUD    CLEAR     52  50  93 S3        29.87S
MINNEAPOLIS    CLEAR     63  50  62 W5        29.87S
$$

  *****  WEATHER ACROSS SOUTH DAKOTA  *****

CITY           SKY/WX    TMP DP  RH WIND       PRES   REMARKS
SIOUX FALLS    CLEAR     60  57  89 NE6       29.94F
BROOKINGS      CLEAR     57  54  88 CALM      29.97F
WATERTOWN      CLEAR     57  53  86 CALM      29.96S
HURON          CLEAR     60  57  89 CALM      29.94F
SISSETON         N/A     55  50  83 NW7       29.92S
ABERDEEN       CLEAR     54  52  93 W3        29.95F
MITCHELL       CLEAR     61  58  90 CALM      29.95S
PIERRE         CLEAR     60  53  77 E5        29.96S
MOBRIDGE       CLEAR     58  55  90 N6        29.97S
RAPID CITY     CLEAR     60  52  74 CALM      30.04S
$$

  *****  SOME WEATHER IN NEARBY STATES *****

CITY           SKY/WX    TMP DP  RH WIND       PRES   REMARKS
GLASGOW MT     CLEAR     60  47  61 SE9       30.01S
GREAT FALLS MT CLEAR     68  45  43 SE10      29.95F
CHEYENNE WY    CLOUDY    62  51  67 W5        30.13F
SCOTTSBLUFF NE PTCLDY    66  56  70 NE7       30.00S
OMAHA NE       MOCLDY    73  67  81 N5        29.91R
DES MOINES IA  PTCLDY    71  59  65 CALM      29.91R
DAVENPORT IA   CLEAR     67  64  90 NW6       29.81R
CHICAGO IL     MOCLDY    68  66  93 W6        29.75S
EAU CLAIRE WI  CLEAR     57  47  69 SW3       29.83R
LA CROSSE WI   CLEAR     64  52  64 N5        29.83R
$$

  *****  SOME NATIONAL WEATHER *****

CITY           SKY/WX    TMP DP  RH WIND       PRES   REMARKS
LA GUARDIA NY  CLEAR     78  58  49 SW10      29.83S
RALEIGH NC     PTCLDY    70  66  87 CALM      29.91F
ATLANTA GA     PTCLDY    76  68  76 E6        29.89F
NEW ORLEANS LA CLEAR     80  75  84 SW7       29.86F
OKLAHOMA CITY  MOCLDY    73  67  81 S6        29.91S
ALBUQUERQUE NM LGT RAIN  67  62  84 N10       30.18F
SALT LAKE CITY CLOUDY    74  52  46 S18G30    29.99F
LOS ANGELES CA CLEAR     70  61  73 VRB3      29.87R
BOISE ID       MOCLDY    84  48  28 W18       29.83R
SEATTLE WA     MOCLDY    72  55  55 N3        29.89S
$$

*** WEATHER ACROSS MANITOBA...SASKATCHEWAN AND ONTARIO ***
                ***ONTARIO***

CITY           SKY/WX    TMP DP  RH WIND       PRES   REMARKS
GERALDTON      MOCLDY    54  52  94 W6        29.59S
THUNDER BAY    MOCLDY    57  52  82 W8        29.67R
SIOUX LOOKOUT  CLOUDY    54  50  87 NW10G17   29.70S
TORONTO        LGT RAIN  64  61  88 NW14      29.64R
BIG TROUT LK   CLOUDY    46  46 100 N6        29.60S FOG
PICKLE LAKE    NOT AVBL
DRYDEN         CLOUDY    54  50  87 NW7       29.73S
KENORA         MOCLDY    57  50  77 NW12G18   29.77F
$$
                *** MANITOBA***

CITY           SKY/WX    TMP DP  RH WIND       PRES   REMARKS
BRANDON        CLEAR     46  46 100 NW8       29.93S
DAUPHIN        CLEAR     48  45  87 W7        29.93S
ISLAND LAKE    LGT RAIN  54  54 100 N9G21     29.72R
PILOT MOUND      N/A     48  46  93 W3          N/A
THE PAS        PTCLDY    54  48  82 VRB2      29.90R
THOMPSON       CLOUDY    52  48  87 N7        29.82R
WINNIPEG       MOCLDY    54  50  87 W7        29.87R
LYNN LAKE      CLOUDY    48  48 100 NW6       29.89F
CHURCHILL      CLOUDY    45  43  93 N9        29.82R
$$
                ***SASKATCHEWAN***

CITY           SKY/WX    TMP DP  RH WIND       PRES   REMARKS
ESTEVAN        CLEAR     50  48  93 NW5       30.01F
KINDERSLEY     PTCLDY    55  50  82 SE5       30.01S
LLOYDMINSTER   CLEAR     57  48  72 S9        29.99F
PRINCE ALBERT  CLEAR     48  48 100 NW3       29.97S
REGINA         CLEAR     52  52 100 CALM      30.02S
YORKTON        CLEAR     52  48  87 W5        29.96S
N. BATTLEFORD  CLEAR     52  48  87 E2        30.02R
LA RONGE       NOT AVBL
SASKATOON      CLEAR     54  52  94 CALM      30.01S
SWIFT CURRENT  CLEAR     57  52  82 S8        30.03S
$$
NOTE: THESE ARE AUTOMATED STATIONS WITH LIMITED QUALITY CONTROL
      "FAIR" INDICATES FEW OR NO CLOUDS BELOW 12,000 FEET WITH NO
      SIGNIFICANT WEATHER AND/OR OBSTRUCTIONS TO VISIBILITY.
      SKY/WX - SKY CONDITION AND SIGNIFICANT WEATHER.
      TMP - AIR TEMPERATURE.    DP   - DEWPOINT TEMPERATURE.
      RH  - RELATIVE HUMIDITY.  PRES - PRESSURE.
      HX  - HEAT INDEX.         WCI  - WIND CHILL INDEX.
$



USA.gov is the U.S. government's official web portal to all federal, state and local government web resources and services.